Opa-locka Executive Airport Miami US
ICAO: KOPF
IATA: OPF
Category: Medium
Scheduled Services: No

Elevation: 8 ft
TransAlt. 18000 ft.

Airport Communications:
MIAMI APP/DEP:128.6
ATIS:125.9
CLNC DEL:119.2
CTAF:120.7
GND:121.9
CG MIAMI AIR:123.1
TWR:120.7

KOPF Zoom In..

If you have problems with the map follow the link
https://www.worldairports.se/pages/airport.php?
ICAO=KOPF

Runways:

(A) RW 09L length 8002 ft width 150 ft
ILS 110.50 / hdg 89

(B) RW 09R length 4309 ft width 100 ft
---- / hdg 89

(C) RW 12 length 6800 ft width 150 ft
ILS 111.55 / hdg 124

(D) RW 27L length 4309 ft width 100 ft
---- / hdg 269

(E) RW 27R length 8002 ft width 150 ft
ILS 111.35 / hdg 269

(F) RW 30 length 6800 ft width 150 ft
---- / hdg 304

Location; KOPF
Day. 29 / Time. 16.53 Zulu
* Altimeter: 29.93
* Temperature: 26° c. 78.8°f.
* Wind from: 230° Speed 10 kn.
Dewpoint: 14° c.
Visibility: 10 Statute Miles.
Clouds: Clear (automated report).

KOPF 291653Z 23010KT 10SM CLR 26/14 A2993 RMK AO2 SLP137 T02560139


Wind From 230°
Speed 10 kn.

 
 
jpsmedia worldairports.se 2020   terms of use